| time (UTC) | temp F | wind direction | speed knots | gust knots | rain 1hr in | rain 24hr in | rain mn in | humidity % | barometer mb |
| 20260507030029 | 59 | 279 | 3.5 | 7.0 | 0.00 | 0.13 | 0.01 | 94 | 998.3 |
| 20260507024526 | 59 | 314 | 0.9 | 5.2 | 0.00 | 0.13 | 0.01 | 95 | 998.0 |
| 20260507023025 | 59 | 285 | 0.9 | 3.5 | 0.00 | 0.13 | 0.01 | 96 | 998.2 |
| 20260507021522 | 59 | 283 | 0.0 | 4.3 | 0.00 | 0.13 | 0.01 | 95 | 998.2 |
| 20260507020027 | 59 | 257 | 0.0 | 0.0 | 0.00 | 0.13 | 0.01 | 95 | 997.8 |
| 20260507014548 | 59 | 311 | 0.0 | 0.0 | 0.00 | 0.13 | 0.01 | 95 | 997.9 |
| 20260507013046 | 59 | 270 | 0.0 | 0.0 | 0.00 | 0.13 | 0.01 | 95 | 997.8 |
| 20260507011547 | 59 | 288 | 0.9 | 2.6 | 0.00 | 0.13 | 0.01 | 95 | 997.8 |
| 20260507010044 | 59 | 297 | 2.6 | 7.0 | 0.00 | 0.13 | 0.01 | 95 | 997.8 |
| 20260507004543 | 59 | 258 | 0.9 | 5.2 | 0.00 | 0.13 | 0.01 | 95 | 997.8 |
| 20260507003040 | 59 | 277 | 1.7 | 7.8 | 0.01 | 0.13 | 0.01 | 95 | 997.8 |
| 20260507001604 | 59 | 127 | 0.0 | 8.7 | 0.01 | 0.13 | 0.01 | 95 | 997.6 |
| 20260507000041 | 59 | 267 | 1.7 | 7.8 | 0.01 | 0.13 | 0.01 | 95 | 997.7 |
| 20260506234533 | 59 | 289 | 0.9 | 7.0 | 0.03 | 0.13 | 0.01 | 95 | 997.5 |
| 20260506233030 | 59 | 260 | 1.7 | 7.8 | 0.03 | 0.12 | 0.00 | 95 | 997.6 |
| 20260506231523 | 59 | 235 | 0.9 | 6.1 | 0.05 | 0.12 | 0.00 | 95 | 997.4 |
| 20260506230019 | 59 | 252 | 0.0 | 7.0 | 0.06 | 0.12 | 0.06 | 95 | 997.6 |
| 20260506224516 | 59 | 250 | 0.0 | 2.6 | 0.03 | 0.09 | 0.03 | 94 | 997.6 |
| 20260506223012 | 59 | 278 | 0.9 | 4.3 | 0.03 | 0.09 | 0.03 | 94 | 997.6 |
| 20260506221607 | 60 | 276 | 0.9 | 6.1 | 0.01 | 0.07 | 0.01 | 94 | 997.7 |